Volver al catálogo

DELTA 1 DEB

LostSSO
NORAD 42587·DEBRIS·🇺🇸 United States

Lanzado Nov 6, 1973 desde Vandenberg Space Force Base

Loading…

Próximos Pases (próximas 24 horas)

TLE

ObsoletoSource: Space-Track

Época: May 23, 2023, 15:55 UTC

1 42587U 73086JB  23143.66334663 -.00000027  00000-0  16386-3 0  9997
2 42587 102.5125 110.7880 0094381 152.9099 207.6921 12.22286095 85163

Sigue DELTA 1 DEB en tiempo real con AllMySat

Download on the App Store